Location: Borovka
(49.7741°N, 14.5280°E)
Time: 15:09:56
(UTC+00:00)

Thor Agena Rocket - Pass Details

Date: 20 February 2026
Orbit: 755 x 801 km, 99.1° (Epoch: 7 March)

Event Time Altitude Azimuth Distance (km) Brightness Sun altitude
Rises 04:04:31 0° 32° (NNE) 3,320 7.4 -19.8°
Reaches altitude 10° 04:08:25 10° 61° (ENE) 2,385 7.1 -19.2°
Maximum altitude 04:10:36 13° 86° (E) 2,207 7.1 -18.8°
Drops below altitude 10° 04:12:47 10° 111° (ESE) 2,377 7.0 -18.4°
Sets 04:16:38 0° 140° (SE) 3,297 7.3 -17.8°
